Time,TemperatureF,DewpointF,PressureIn,WindDirection,WindDirectionDegrees,WindSpeedMPH,WindSpeedGustMPH,Humidity,HourlyPrecipIn,Conditions,Clouds,dailyrainin,SolarRadiationWatts/m^2,SoftwareType,DateUTC
2013-03-08 00:00:00,34.4,24.2,30.09,SSW,205,0.0,0.0,66,0.00,,,-99.99,0,WeatherHawk,2013-03-08 08:00:00,
2013-03-08 00:05:00,35.6,24.6,30.09,West,263,2.0,0.0,64,0.00,,,0.00,0,WeatherHawk,2013-03-08 08:05:00,
2013-03-08 00:10:00,34.5,23.2,30.09,WNW,284,0.0,0.0,63,0.00,,,0.00,0,WeatherHawk,2013-03-08 08:10:00,
2013-03-08 00:16:00,33.6,24.8,30.09,West,272,0.0,0.0,70,0.00,,,0.00,0,WeatherHawk,2013-03-08 08:16:00,
2013-03-08 00:21:00,34.4,25.3,30.09,SE,124,0.0,0.0,69,0.00,,,0.00,0,WeatherHawk,2013-03-08 08:21:00,
2013-03-08 00:27:00,33.7,23.9,30.10,WSW,246,0.0,0.0,67,0.00,,,0.00,0,WeatherHawk,2013-03-08 08:27:00,
2013-03-08 00:32:00,32.9,24.9,30.09,WSW,246,0.0,0.0,72,0.00,,,0.00,0,WeatherHawk,2013-03-08 08:32:00,
2013-03-08 00:37:00,33.7,26.3,30.09,WSW,244,0.0,0.0,74,0.00,,,0.00,0,WeatherHawk,2013-03-08 08:37:00,
2013-03-08 00:42:00,32.5,24.2,30.09,ESE,110,0.0,0.0,71,0.00,,,0.00,0,WeatherHawk,2013-03-08 08:42:00,
2013-03-08 00:47:00,33.4,24.7,30.10,SW,227,0.0,0.0,70,0.00,,,0.00,0,WeatherHawk,2013-03-08 08:47:00,
2013-03-08 00:52:00,33.9,24.1,30.10,South,187,0.0,0.0,67,0.00,,,0.00,0,WeatherHawk,2013-03-08 08:52:00,
2013-03-08 00:58:00,32.5,24.2,30.10,NNE,12,0.0,0.0,71,0.00,,,0.00,0,WeatherHawk,2013-03-08 08:58:00,
2013-03-08 01:04:00,32.9,25.5,30.10,NNE,12,0.0,0.0,74,0.00,,,0.00,0,WeatherHawk,2013-03-08 09:04:00,
2013-03-08 01:09:00,32.2,23.5,30.10,East,84,0.0,0.0,70,0.00,,,0.00,0,WeatherHawk,2013-03-08 09:09:00,
2013-03-08 01:14:00,33.6,25.2,30.10,East,84,0.0,0.0,71,0.00,,,0.00,0,WeatherHawk,2013-03-08 09:14:00,
2013-03-08 01:19:00,32.5,24.8,30.10,NE,42,2.0,0.0,73,0.00,,,0.00,0,WeatherHawk,2013-03-08 09:19:00,
2013-03-08 01:24:00,32.9,23.8,30.09,NE,42,0.0,0.0,69,0.00,,,0.00,1,WeatherHawk,2013-03-08 09:24:00,
2013-03-08 01:29:00,33.4,22.9,30.10,SSW,195,0.0,0.0,65,0.00,,,0.00,0,WeatherHawk,2013-03-08 09:29:00,
2013-03-08 01:34:00,32.6,22.5,30.10,North,351,0.0,0.0,66,0.00,,,0.00,0,WeatherHawk,2013-03-08 09:34:00,
2013-03-08 01:39:00,32.4,23.4,30.09,North,4,0.0,0.0,69,0.00,,,0.00,0,WeatherHawk,2013-03-08 09:39:00,
2013-03-08 01:44:00,32.6,23.9,30.10,North,0,0.0,0.0,70,0.00,,,0.00,0,WeatherHawk,2013-03-08 09:44:00,
2013-03-08 01:50:00,32.0,23.7,30.09,North,1,0.0,0.0,71,0.00,,,0.00,0,WeatherHawk,2013-03-08 09:50:00,
2013-03-08 01:55:00,32.5,23.8,30.09,SE,127,1.0,-999.0,70,0.00,,,0.00,0,WeatherHawk,2013-03-08 09:55:00,
2013-03-08 02:00:00,33.2,22.7,30.09,SE,127,0.0,0.0,65,0.00,,,0.00,0,WeatherHawk,2013-03-08 10:00:00,
2013-03-08 02:05:00,32.6,22.9,30.09,North,351,3.0,0.0,67,0.00,,,0.00,0,WeatherHawk,2013-03-08 10:05:00,
2013-03-08 02:10:00,32.3,24.0,30.09,North,350,0.0,0.0,71,0.00,,,0.00,1,WeatherHawk,2013-03-08 10:10:00,
2013-03-08 02:15:00,31.7,24.0,30.08,SSE,168,3.0,0.0,73,0.00,,,0.00,0,WeatherHawk,2013-03-08 10:15:00,
2013-03-08 02:20:00,32.6,24.2,30.09,SE,138,2.0,0.0,71,0.00,,,0.00,0,WeatherHawk,2013-03-08 10:20:00,
2013-03-08 02:25:00,32.5,22.8,30.09,SE,138,0.0,0.0,67,0.00,,,0.00,1,WeatherHawk,2013-03-08 10:25:00,
2013-03-08 02:30:00,31.9,22.6,30.09,SE,138,0.0,0.0,68,0.00,,,0.00,0,WeatherHawk,2013-03-08 10:30:00,
2013-03-08 02:35:00,31.1,23.5,30.09,SE,138,0.0,-999.0,73,0.00,,,0.00,0,WeatherHawk,2013-03-08 10:35:00,
2013-03-08 02:40:00,30.6,24.8,30.10,SE,138,0.0,0.0,79,0.00,,,0.00,1,WeatherHawk,2013-03-08 10:40:00,
2013-03-08 02:45:00,31.7,25.9,30.09,SE,138,0.0,-999.0,79,0.00,,,0.00,0,WeatherHawk,2013-03-08 10:45:00,
2013-03-08 02:50:00,31.5,26.6,30.09,SE,138,0.0,0.0,82,0.00,,,0.00,0,WeatherHawk,2013-03-08 10:50:00,
2013-03-08 02:55:00,31.3,25.9,30.09,SE,138,0.0,0.0,80,0.00,,,0.00,0,WeatherHawk,2013-03-08 10:55:00,
2013-03-08 03:00:00,32.4,26.0,30.09,SE,138,2.0,0.0,77,0.00,,,0.00,0,WeatherHawk,2013-03-08 11:00:00,
2013-03-08 03:05:00,31.8,22.8,30.09,SE,138,0.0,0.0,69,0.00,,,0.00,1,WeatherHawk,2013-03-08 11:05:00,
2013-03-08 03:10:00,30.1,20.9,30.09,SE,138,0.0,0.0,68,0.00,,,0.00,0,WeatherHawk,2013-03-08 11:10:00,
2013-03-08 03:15:00,31.5,23.9,30.09,SE,138,0.0,0.0,73,0.00,,,0.00,0,WeatherHawk,2013-03-08 11:15:00,
2013-03-08 03:20:00,31.7,24.4,30.08,SE,138,0.0,0.0,74,0.00,,,0.00,0,WeatherHawk,2013-03-08 11:20:00,
2013-03-08 03:25:00,31.7,25.3,30.09,SE,138,0.0,-999.0,77,0.00,,,0.00,0,WeatherHawk,2013-03-08 11:25:00,
2013-03-08 03:30:00,30.3,24.3,30.08,SE,138,0.0,0.0,78,0.00,,,0.00,0,WeatherHawk,2013-03-08 11:30:00,
2013-03-08 03:35:00,30.6,26.3,30.09,SE,138,0.0,0.0,84,0.00,,,0.00,0,WeatherHawk,2013-03-08 11:35:00,
2013-03-08 03:40:00,29.4,25.5,30.09,SE,138,0.0,0.0,85,0.00,,,0.00,0,WeatherHawk,2013-03-08 11:40:00,
2013-03-08 03:45:00,30.2,26.8,30.09,SE,138,0.0,-999.0,87,0.00,,,0.00,0,WeatherHawk,2013-03-08 11:45:00,
2013-03-08 03:50:00,30.8,27.6,30.09,SSE,159,0.0,0.0,88,0.00,,,0.00,0,WeatherHawk,2013-03-08 11:50:00,
2013-03-08 03:55:00,30.5,26.8,30.09,SSE,159,0.0,-999.0,86,0.00,,,0.00,0,WeatherHawk,2013-03-08 11:55:00,
2013-03-08 04:00:00,29.8,25.6,30.09,WNW,287,0.0,0.0,84,0.00,,,0.00,0,WeatherHawk,2013-03-08 12:00:00,
2013-03-08 04:05:00,29.7,26.0,30.09,South,177,2.0,-999.0,86,0.00,,,0.00,1,WeatherHawk,2013-03-08 12:05:00,
2013-03-08 04:10:00,30.1,26.7,30.09,South,177,2.0,0.0,87,0.00,,,0.00,0,WeatherHawk,2013-03-08 12:10:00,
2013-03-08 04:15:00,29.6,26.2,30.09,South,177,0.0,0.0,87,0.00,,,0.00,0,WeatherHawk,2013-03-08 12:15:00,
2013-03-08 04:20:00,30.4,27.5,30.09,South,178,0.0,0.0,89,0.00,,,0.00,1,WeatherHawk,2013-03-08 12:20:00,
2013-03-08 04:25:00,29.9,27.3,30.09,SW,217,0.0,-999.0,90,0.00,,,0.00,0,WeatherHawk,2013-03-08 12:25:00,
2013-03-08 04:30:00,30.1,26.7,30.09,SSW,192,0.0,0.0,87,0.00,,,0.00,0,WeatherHawk,2013-03-08 12:30:00,
2013-03-08 04:35:00,29.5,25.5,30.09,South,181,0.0,0.0,85,0.00,,,0.00,0,WeatherHawk,2013-03-08 12:35:00,
2013-03-08 04:40:00,30.6,26.6,30.10,South,181,1.0,0.0,85,0.00,,,0.00,0,WeatherHawk,2013-03-08 12:40:00,
2013-03-08 04:45:00,30.6,26.1,30.10,North,351,2.0,-999.0,83,0.00,,,0.00,0,WeatherHawk,2013-03-08 12:45:00,
2013-03-08 04:50:00,29.7,25.2,30.10,North,0,0.0,0.0,83,0.00,,,0.00,1,WeatherHawk,2013-03-08 12:50:00,
2013-03-08 04:55:00,28.1,23.9,30.10,North,0,0.0,-999.0,84,0.00,,,0.00,0,WeatherHawk,2013-03-08 12:55:00,
2013-03-08 05:00:00,29.7,26.8,30.10,North,0,0.0,0.0,89,0.00,,,0.00,0,WeatherHawk,2013-03-08 13:00:00,
2013-03-08 05:05:00,29.5,26.7,30.10,North,0,0.0,-999.0,89,0.00,,,0.00,0,WeatherHawk,2013-03-08 13:05:00,
2013-03-08 05:10:00,29.5,27.2,30.10,SE,143,2.0,0.0,91,0.00,,,0.00,1,WeatherHawk,2013-03-08 13:10:00,
2013-03-08 05:15:00,30.5,27.1,30.10,SE,125,2.0,0.0,87,0.00,,,0.00,0,WeatherHawk,2013-03-08 13:15:00,
2013-03-08 05:20:00,30.7,25.3,30.10,SE,134,0.0,0.0,80,0.00,,,0.00,0,WeatherHawk,2013-03-08 13:20:00,
2013-03-08 05:25:00,30.2,24.2,30.10,NW,314,3.0,-999.0,78,0.00,,,0.00,1,WeatherHawk,2013-03-08 13:25:00,
2013-03-08 05:30:00,29.5,24.7,30.09,NW,314,0.0,0.0,82,0.00,,,0.00,1,WeatherHawk,2013-03-08 13:30:00,
2013-03-08 05:35:00,29.2,25.5,30.10,NW,314,0.0,0.0,86,0.00,,,0.00,1,WeatherHawk,2013-03-08 13:35:00,
2013-03-08 05:40:00,28.4,24.5,30.10,NW,314,0.0,0.0,85,0.00,,,0.00,0,WeatherHawk,2013-03-08 13:40:00,
2013-03-08 05:45:00,28.1,25.3,30.10,NW,314,0.0,0.0,89,0.00,,,0.00,1,WeatherHawk,2013-03-08 13:45:00,
2013-03-08 05:50:00,28.9,26.8,30.10,NW,314,0.0,0.0,92,0.00,,,0.00,0,WeatherHawk,2013-03-08 13:50:00,
2013-03-08 05:55:00,28.8,27.5,30.11,NW,314,0.0,-999.0,95,0.00,,,0.00,0,WeatherHawk,2013-03-08 13:55:00,
2013-03-08 06:00:00,29.3,28.6,30.11,NW,314,0.0,0.0,97,0.00,,,0.00,0,WeatherHawk,2013-03-08 14:00:00,
2013-03-08 06:05:00,27.3,26.6,30.11,NW,314,0.0,0.0,97,0.00,,,0.00,0,WeatherHawk,2013-03-08 14:05:00,
2013-03-08 06:10:00,28.7,28.2,30.11,NW,314,0.0,0.0,98,0.00,,,0.00,0,WeatherHawk,2013-03-08 14:10:00,
2013-03-08 06:15:00,28.9,28.6,30.11,NW,314,0.0,0.0,99,0.00,,,0.00,0,WeatherHawk,2013-03-08 14:15:00,
2013-03-08 06:20:00,28.7,28.2,30.11,South,180,0.0,0.0,98,0.00,,,0.00,1,WeatherHawk,2013-03-08 14:20:00,
2013-03-08 06:25:00,28.6,27.6,30.11,South,180,0.0,0.0,96,0.00,,,0.00,0,WeatherHawk,2013-03-08 14:25:00,
2013-03-08 06:30:00,28.0,26.8,30.11,South,180,0.0,0.0,95,0.00,,,0.00,2,WeatherHawk,2013-03-08 14:30:00,
2013-03-08 06:35:00,28.8,27.6,30.11,South,180,0.0,-999.0,95,0.00,,,0.00,5,WeatherHawk,2013-03-08 14:35:00,
2013-03-08 06:40:00,29.0,27.2,30.11,SSE,159,1.0,0.0,93,0.00,,,0.00,8,WeatherHawk,2013-03-08 14:40:00,
2013-03-08 06:45:00,29.7,26.6,30.11,SSE,159,0.0,-999.0,88,0.00,,,0.00,11,WeatherHawk,2013-03-08 14:45:00,
2013-03-08 06:50:00,29.6,25.7,30.11,SSE,159,0.0,0.0,85,0.00,,,0.00,14,WeatherHawk,2013-03-08 14:50:00,
2013-03-08 06:55:00,29.1,25.4,30.11,NW,314,0.0,-999.0,86,0.00,,,0.00,17,WeatherHawk,2013-03-08 14:55:00,
2013-03-08 07:00:00,28.6,25.3,30.11,SE,137,0.0,0.0,87,0.00,,,0.00,22,WeatherHawk,2013-03-08 15:00:00,
2013-03-08 07:05:00,28.6,25.3,30.11,East,88,2.0,0.0,87,0.00,,,0.00,27,WeatherHawk,2013-03-08 15:05:00,
2013-03-08 07:10:00,29.5,26.2,30.11,NE,51,0.0,0.0,87,0.00,,,0.00,32,WeatherHawk,2013-03-08 15:10:00,
2013-03-08 07:15:00,29.6,26.3,30.11,SSE,147,0.0,0.0,87,0.00,,,0.00,39,WeatherHawk,2013-03-08 15:15:00,
2013-03-08 07:20:00,29.3,26.2,30.11,SSE,147,0.0,0.0,88,0.00,,,0.00,42,WeatherHawk,2013-03-08 15:20:00,
2013-03-08 07:25:00,28.9,25.8,30.11,SSE,147,0.0,-999.0,88,0.00,,,0.00,45,WeatherHawk,2013-03-08 15:25:00,
2013-03-08 07:30:00,29.9,26.5,30.11,SSE,147,1.0,0.0,87,0.00,,,0.00,50,WeatherHawk,2013-03-08 15:30:00,
2013-03-08 07:35:00,30.1,25.9,30.11,SSE,147,0.0,0.0,84,0.00,,,0.00,54,WeatherHawk,2013-03-08 15:35:00,
2013-03-08 07:40:00,30.2,25.6,30.11,ENE,70,0.0,0.0,83,0.00,,,0.00,59,WeatherHawk,2013-03-08 15:40:00,
2013-03-08 07:45:00,29.7,24.8,30.12,NE,39,0.0,0.0,82,0.00,,,0.00,65,WeatherHawk,2013-03-08 15:45:00,
2013-03-08 07:50:00,29.8,25.0,30.12,NE,39,0.0,-999.0,82,0.00,,,0.00,68,WeatherHawk,2013-03-08 15:50:00,
2013-03-08 07:55:00,30.2,25.1,30.12,NE,39,0.0,-999.0,81,0.00,,,0.00,61,WeatherHawk,2013-03-08 15:55:00,
2013-03-08 08:00:00,32.2,26.4,30.12,East,100,0.0,0.0,79,0.00,,,0.00,171,WeatherHawk,2013-03-08 16:00:00,
2013-03-08 08:05:00,34.8,25.0,30.12,East,100,0.0,-999.0,67,0.00,,,0.00,194,WeatherHawk,2013-03-08 16:05:00,
2013-03-08 08:10:00,37.7,25.1,30.12,East,100,0.0,0.0,60,0.00,,,0.00,200,WeatherHawk,2013-03-08 16:10:00,
2013-03-08 08:15:00,33.4,19.0,30.11,East,100,0.0,-999.0,55,0.00,,,0.00,224,WeatherHawk,2013-03-08 16:15:00,
2013-03-08 08:20:00,36.3,23.0,30.11,NW,318,0.0,0.0,58,0.00,,,0.00,232,WeatherHawk,2013-03-08 16:20:00,
2013-03-08 08:25:00,35.2,21.1,30.11,NW,318,0.0,-999.0,56,0.00,,,0.00,186,WeatherHawk,2013-03-08 16:25:00,
2013-03-08 08:30:00,35.4,21.2,30.11,NW,318,0.0,-999.0,56,0.00,,,0.00,213,WeatherHawk,2013-03-08 16:30:00,
2013-03-08 08:35:00,34.5,20.4,30.11,NW,318,0.0,-999.0,56,0.00,,,0.00,170,WeatherHawk,2013-03-08 16:35:00,
2013-03-08 08:40:00,39.5,24.7,30.11,NW,318,0.0,-999.0,55,0.00,,,0.00,265,WeatherHawk,2013-03-08 16:40:00,
2013-03-08 08:45:00,40.2,22.1,30.11,NW,318,0.0,-999.0,48,0.00,,,0.00,288,WeatherHawk,2013-03-08 16:45:00,
2013-03-08 08:50:00,35.5,18.2,30.11,NE,39,3.0,0.0,49,0.00,,,0.00,313,WeatherHawk,2013-03-08 16:50:00,
2013-03-08 08:55:00,34.7,17.5,30.10,WNW,292,0.0,-999.0,49,0.00,,,0.00,323,WeatherHawk,2013-03-08 16:55:00,
2013-03-08 09:00:00,34.8,18.1,30.10,WNW,292,0.0,0.0,50,0.00,,,0.00,330,WeatherHawk,2013-03-08 17:00:00,
2013-03-08 09:05:00,34.6,17.9,30.10,NNW,327,2.0,0.0,50,0.00,,,0.00,334,WeatherHawk,2013-03-08 17:05:00,
2013-03-08 09:10:00,37.2,18.3,30.10,NNW,327,0.0,0.0,46,0.00,,,0.00,344,WeatherHawk,2013-03-08 17:10:00,
2013-03-08 09:15:00,39.1,16.9,30.10,SE,131,0.0,0.0,40,0.00,,,0.00,353,WeatherHawk,2013-03-08 17:15:00,
2013-03-08 09:20:00,36.3,16.0,30.10,North,351,5.0,0.0,43,0.00,,,0.00,361,WeatherHawk,2013-03-08 17:20:00,
2013-03-08 09:25:00,36.9,19.1,30.09,NNW,339,2.0,0.0,48,0.00,,,0.00,371,WeatherHawk,2013-03-08 17:25:00,
2013-03-08 09:30:00,38.0,19.1,30.10,NW,315,0.0,0.0,46,0.00,,,0.00,379,WeatherHawk,2013-03-08 17:30:00,
2013-03-08 09:35:00,37.6,14.9,30.10,NE,56,2.0,0.0,39,0.00,,,0.00,388,WeatherHawk,2013-03-08 17:35:00,
2013-03-08 09:40:00,41.9,20.5,30.09,SSW,209,1.0,0.0,42,0.00,,,0.00,398,WeatherHawk,2013-03-08 17:40:00,
2013-03-08 09:45:00,39.4,14.7,30.10,North,3,3.0,0.0,36,0.00,,,0.00,410,WeatherHawk,2013-03-08 17:45:00,
2013-03-08 09:50:00,40.2,15.4,30.09,North,5,0.0,0.0,36,0.00,,,0.00,410,WeatherHawk,2013-03-08 17:50:00,
2013-03-08 09:55:00,40.1,16.0,30.09,NNW,332,5.0,-999.0,37,0.00,,,0.00,413,WeatherHawk,2013-03-08 17:55:00,
2013-03-08 10:00:00,42.0,17.7,30.09,NE,38,0.0,0.0,37,0.00,,,0.00,430,WeatherHawk,2013-03-08 18:00:00,
2013-03-08 10:05:00,40.8,16.6,30.09,NNW,346,3.0,0.0,37,0.00,,,0.00,442,WeatherHawk,2013-03-08 18:05:00,
2013-03-08 10:10:00,41.0,16.7,30.09,NE,41,2.0,0.0,37,0.00,,,0.00,448,WeatherHawk,2013-03-08 18:10:00,
2013-03-08 10:15:00,40.7,15.8,30.09,NE,37,3.0,0.0,36,0.00,,,0.00,456,WeatherHawk,2013-03-08 18:15:00,
2013-03-08 10:20:00,41.8,14.1,30.09,ENE,68,1.0,-999.0,32,0.00,,,0.00,463,WeatherHawk,2013-03-08 18:20:00,
2013-03-08 10:25:00,40.0,13.9,30.09,NE,35,4.0,0.0,34,0.00,,,0.00,471,WeatherHawk,2013-03-08 18:25:00,
2013-03-08 10:30:00,39.8,13.7,30.09,NE,37,4.0,0.0,34,0.00,,,0.00,476,WeatherHawk,2013-03-08 18:30:00,
2013-03-08 10:35:00,42.1,17.1,30.08,North,0,3.0,0.0,36,0.00,,,0.00,475,WeatherHawk,2013-03-08 18:35:00,
2013-03-08 10:40:00,39.5,14.1,30.09,NW,324,3.0,0.0,35,0.00,,,0.00,491,WeatherHawk,2013-03-08 18:40:00,
2013-03-08 10:45:00,39.4,14.1,30.09,WNW,294,3.0,0.0,35,0.00,,,0.00,496,WeatherHawk,2013-03-08 18:45:00,
2013-03-08 10:50:00,39.5,12.8,30.09,North,5,8.0,0.0,33,0.00,,,0.00,501,WeatherHawk,2013-03-08 18:50:00,
2013-03-08 10:55:00,42.0,16.3,30.09,North,351,7.0,0.0,35,0.00,,,0.00,508,WeatherHawk,2013-03-08 18:55:00,
2013-03-08 11:00:00,41.4,15.2,30.08,ENE,69,5.0,0.0,34,0.00,,,0.00,511,WeatherHawk,2013-03-08 19:00:00,
2013-03-08 11:05:00,40.6,13.8,30.08,West,270,7.0,0.0,33,0.00,,,0.00,515,WeatherHawk,2013-03-08 19:05:00,
2013-03-08 11:10:00,41.4,13.8,30.08,NNW,347,9.0,0.0,32,0.00,,,0.00,519,WeatherHawk,2013-03-08 19:10:00,
2013-03-08 11:15:00,42.2,16.6,30.09,North,1,5.0,0.0,35,0.00,,,0.00,522,WeatherHawk,2013-03-08 19:15:00,
2013-03-08 11:20:00,41.9,12.7,30.08,NW,319,5.0,0.0,30,0.00,,,0.00,526,WeatherHawk,2013-03-08 19:20:00,
2013-03-08 11:25:00,43.5,15.6,30.08,East,100,1.0,0.0,32,0.00,,,0.00,530,WeatherHawk,2013-03-08 19:25:00,
2013-03-08 11:30:00,43.6,15.0,30.08,NNW,342,1.0,0.0,31,0.00,,,0.00,533,WeatherHawk,2013-03-08 19:30:00,
2013-03-08 11:35:00,41.4,11.6,30.08,NE,36,5.0,0.0,29,0.00,,,0.00,535,WeatherHawk,2013-03-08 19:35:00,
2013-03-08 11:40:00,43.4,14.8,30.08,NNW,330,4.0,0.0,31,0.00,,,0.00,539,WeatherHawk,2013-03-08 19:40:00,
2013-03-08 11:45:00,42.5,13.3,30.08,ESE,111,1.0,0.0,30,0.00,,,0.00,540,WeatherHawk,2013-03-08 19:45:00,
2013-03-08 11:50:00,43.9,15.3,30.08,NE,44,4.0,0.0,31,0.00,,,0.00,542,WeatherHawk,2013-03-08 19:50:00,
2013-03-08 11:55:00,44.0,14.6,30.08,NNE,16,8.0,0.0,30,0.00,,,0.00,549,WeatherHawk,2013-03-08 19:55:00,
2013-03-08 12:00:00,43.4,13.3,30.08,NE,37,5.0,0.0,29,0.00,,,0.00,548,WeatherHawk,2013-03-08 20:00:00,
2013-03-08 12:05:00,43.5,13.4,30.07,NNE,19,5.0,0.0,29,0.00,,,0.00,550,WeatherHawk,2013-03-08 20:05:00,
2013-03-08 12:10:00,44.9,15.3,30.07,NNW,330,6.0,0.0,30,0.00,,,0.00,562,WeatherHawk,2013-03-08 20:10:00,
2013-03-08 12:15:00,42.7,9.4,30.07,West,272,4.0,0.0,25,0.00,,,0.00,567,WeatherHawk,2013-03-08 20:15:00,
2013-03-08 12:20:00,44.8,11.1,30.07,NE,38,4.0,0.0,25,0.00,,,0.00,582,WeatherHawk,2013-03-08 20:20:00,
2013-03-08 12:25:00,42.8,11.1,30.07,North,4,10.0,0.0,27,0.00,,,0.00,569,WeatherHawk,2013-03-08 20:25:00,
2013-03-08 12:30:00,43.1,11.4,30.07,WNW,298,8.0,0.0,27,0.00,,,0.00,562,WeatherHawk,2013-03-08 20:30:00,
2013-03-08 12:35:00,44.3,13.3,30.07,ENE,64,2.0,0.0,28,0.00,,,0.00,474,WeatherHawk,2013-03-08 20:35:00,
2013-03-08 12:40:00,43.6,11.0,30.07,NE,45,5.0,0.0,26,0.00,,,0.00,549,WeatherHawk,2013-03-08 20:40:00,
2013-03-08 12:45:00,45.1,14.0,30.06,NW,326,4.0,0.0,28,0.00,,,0.00,547,WeatherHawk,2013-03-08 20:45:00,
2013-03-08 12:50:00,44.3,11.6,30.07,NW,319,6.0,0.0,26,0.00,,,0.00,559,WeatherHawk,2013-03-08 20:50:00,
2013-03-08 12:55:00,45.2,12.4,30.07,North,1,7.0,0.0,26,0.00,,,0.00,540,WeatherHawk,2013-03-08 20:55:00,
2013-03-08 13:00:00,47.5,13.5,30.07,North,1,2.0,0.0,25,0.00,,,0.00,538,WeatherHawk,2013-03-08 21:00:00,
2013-03-08 13:05:00,44.8,8.3,30.06,NNW,348,5.0,0.0,22,0.00,,,0.00,538,WeatherHawk,2013-03-08 21:05:00,
2013-03-08 13:10:00,45.3,9.7,30.06,NNW,347,4.0,0.0,23,0.00,,,0.00,531,WeatherHawk,2013-03-08 21:10:00,
2013-03-08 13:15:00,44.4,7.0,30.06,NE,39,3.0,0.0,21,0.00,,,0.00,527,WeatherHawk,2013-03-08 21:15:00,
2013-03-08 13:20:00,46.0,6.1,30.06,NNE,14,4.0,0.0,19,0.00,,,0.00,525,WeatherHawk,2013-03-08 21:20:00,
2013-03-08 13:25:00,45.8,7.0,30.06,NNE,28,6.0,0.0,20,0.00,,,0.00,523,WeatherHawk,2013-03-08 21:25:00,
2013-03-08 13:30:00,46.5,9.7,30.06,NNW,345,11.0,0.0,22,0.00,,,0.00,518,WeatherHawk,2013-03-08 21:30:00,
2013-03-08 13:35:00,48.1,12.1,30.06,North,6,4.0,0.0,23,0.00,,,0.00,518,WeatherHawk,2013-03-08 21:35:00,
2013-03-08 13:41:00,45.9,7.1,30.05,NNE,29,5.0,0.0,20,0.00,,,0.00,506,WeatherHawk,2013-03-08 21:41:00,
2013-03-08 13:46:00,46.1,5.0,30.06,ENE,65,6.0,0.0,18,0.00,,,0.00,504,WeatherHawk,2013-03-08 21:46:00,
2013-03-08 13:51:00,47.8,9.8,30.06,North,349,7.0,0.0,21,0.00,,,0.00,497,WeatherHawk,2013-03-08 21:51:00,
2013-03-08 13:56:00,46.2,6.3,30.05,NNW,346,9.0,0.0,19,0.00,,,0.00,491,WeatherHawk,2013-03-08 21:56:00,
2013-03-08 14:01:00,48.0,10.0,30.05,North,0,6.0,0.0,21,0.00,,,0.00,489,WeatherHawk,2013-03-08 22:01:00,
2013-03-08 14:06:00,48.2,9.1,30.05,North,1,6.0,0.0,20,0.00,,,0.00,486,WeatherHawk,2013-03-08 22:06:00,
2013-03-08 14:11:00,48.9,8.5,30.06,North,351,5.0,0.0,19,0.00,,,0.00,487,WeatherHawk,2013-03-08 22:11:00,
2013-03-08 14:16:00,48.7,7.1,30.06,NE,54,8.0,0.0,18,0.00,,,0.00,463,WeatherHawk,2013-03-08 22:16:00,
2013-03-08 14:21:00,47.9,5.2,30.05,North,10,5.0,0.0,17,0.00,,,0.00,462,WeatherHawk,2013-03-08 22:21:00,
2013-03-08 14:26:00,46.2,2.5,30.05,NW,320,11.0,0.0,16,0.00,,,0.00,452,WeatherHawk,2013-03-08 22:26:00,
2013-03-08 14:31:00,48.3,5.5,30.06,North,9,6.0,0.0,17,0.00,,,0.00,445,WeatherHawk,2013-03-08 22:31:00,
2013-03-08 14:36:00,47.0,3.2,30.05,NNW,333,10.0,0.0,16,0.00,,,0.00,434,WeatherHawk,2013-03-08 22:36:00,
2013-03-08 14:41:00,46.9,1.7,30.05,NNE,28,5.0,0.0,15,0.00,,,0.00,435,WeatherHawk,2013-03-08 22:41:00,
2013-03-08 14:46:00,49.8,5.5,30.05,NNE,25,2.0,0.0,16,0.00,,,0.00,439,WeatherHawk,2013-03-08 22:46:00,
2013-03-08 14:51:00,47.9,1.1,30.06,NNW,348,5.0,0.0,14,0.00,,,0.00,450,WeatherHawk,2013-03-08 22:51:00,
2013-03-08 14:56:00,46.7,1.5,30.06,North,3,9.0,0.0,15,0.00,,,0.00,144,WeatherHawk,2013-03-08 22:56:00,
2013-03-08 15:01:00,48.5,3.0,30.05,North,0,5.0,0.0,15,0.00,,,0.00,444,WeatherHawk,2013-03-08 23:01:00,
2013-03-08 15:06:00,47.8,3.8,30.06,NW,304,7.0,0.0,16,0.00,,,0.00,461,WeatherHawk,2013-03-08 23:06:00,
2013-03-08 15:11:00,49.7,2.5,30.06,NNE,25,6.0,0.0,14,0.00,,,0.00,479,WeatherHawk,2013-03-08 23:11:00,
2013-03-08 15:16:00,47.0,-4.8,30.06,NNE,27,6.0,0.0,11,0.00,,,0.00,457,WeatherHawk,2013-03-08 23:16:00,
2013-03-08 15:21:00,48.9,0.2,30.06,NNE,27,7.0,0.0,13,0.00,,,0.00,285,WeatherHawk,2013-03-08 23:21:00,
2013-03-08 15:26:00,46.8,-1.4,30.06,NE,53,7.0,0.0,13,0.00,,,0.00,115,WeatherHawk,2013-03-08 23:26:00,
2013-03-08 15:31:00,46.6,4.1,30.06,North,11,5.0,0.0,17,0.00,,,0.00,105,WeatherHawk,2013-03-08 23:31:00,
2013-03-08 15:36:00,47.8,0.9,30.06,North,0,7.0,0.0,14,0.00,,,0.00,348,WeatherHawk,2013-03-08 23:36:00,
2013-03-08 15:41:00,47.6,-0.7,30.06,NNW,338,8.0,0.0,13,0.00,,,0.00,312,WeatherHawk,2013-03-08 23:41:00,
2013-03-08 15:46:00,49.4,2.3,30.06,North,5,10.0,0.0,14,0.00,,,0.00,297,WeatherHawk,2013-03-08 23:46:00,
2013-03-08 15:51:00,48.2,1.3,30.07,NNW,329,6.0,0.0,14,0.00,,,0.00,289,WeatherHawk,2013-03-08 23:51:00,
2013-03-08 15:56:00,47.2,-6.6,30.07,North,0,13.0,0.0,10,0.00,,,0.00,281,WeatherHawk,2013-03-08 23:56:00,
2013-03-08 16:01:00,49.0,1.9,30.06,North,8,8.0,0.0,14,0.00,,,0.00,264,WeatherHawk,2013-03-09 00:01:00,
2013-03-08 16:06:00,47.9,-0.6,30.06,NE,38,12.0,0.0,13,0.00,,,0.00,252,WeatherHawk,2013-03-09 00:06:00,
2013-03-08 16:11:00,47.8,0.9,30.07,NNW,342,11.0,0.0,14,0.00,,,0.00,239,WeatherHawk,2013-03-09 00:11:00,
2013-03-08 16:16:00,48.5,1.5,30.07,North,7,8.0,0.0,14,0.00,,,0.00,231,WeatherHawk,2013-03-09 00:16:00,
2013-03-08 16:21:00,47.4,-2.6,30.07,North,0,9.0,0.0,12,0.00,,,0.00,221,WeatherHawk,2013-03-09 00:21:00,
2013-03-08 16:26:00,47.5,2.2,30.06,North,350,5.0,0.0,15,0.00,,,0.00,203,WeatherHawk,2013-03-09 00:26:00,
2013-03-08 16:31:00,48.6,4.5,30.06,North,0,7.0,0.0,16,0.00,,,0.00,188,WeatherHawk,2013-03-09 00:31:00,
2013-03-08 16:37:00,48.0,2.6,30.07,North,0,7.0,0.0,15,0.00,,,0.00,173,WeatherHawk,2013-03-09 00:37:00,
2013-03-08 16:42:00,46.6,-3.2,30.07,North,0,11.0,0.0,12,0.00,,,0.00,160,WeatherHawk,2013-03-09 00:42:00,
2013-03-08 16:47:00,47.2,-2.8,30.07,NW,326,12.0,0.0,12,0.00,,,0.00,151,WeatherHawk,2013-03-09 00:47:00,
2013-03-08 16:52:00,47.3,2.0,30.07,WNW,293,12.0,0.0,15,0.00,,,0.00,142,WeatherHawk,2013-03-09 00:52:00,
2013-03-08 16:57:00,47.2,4.7,30.08,North,349,5.0,0.0,17,0.00,,,0.00,128,WeatherHawk,2013-03-09 00:57:00,
2013-03-08 17:02:00,47.4,4.8,30.08,NNE,24,5.0,0.0,17,0.00,,,0.00,116,WeatherHawk,2013-03-09 01:02:00,
2013-03-08 17:07:00,47.1,3.2,30.08,NE,38,9.0,0.0,16,0.00,,,0.00,103,WeatherHawk,2013-03-09 01:07:00,
2013-03-08 17:12:00,47.0,1.8,30.08,North,10,5.0,0.0,15,0.00,,,0.00,92,WeatherHawk,2013-03-09 01:12:00,
2013-03-08 17:17:00,47.4,3.5,30.08,NNW,343,4.0,0.0,16,0.00,,,0.00,82,WeatherHawk,2013-03-09 01:17:00,
2013-03-08 17:23:00,46.9,3.1,30.09,NW,324,8.0,0.0,16,0.00,,,0.00,71,WeatherHawk,2013-03-09 01:23:00,
2013-03-08 17:28:00,46.9,4.4,30.09,NNE,18,4.0,0.0,17,0.00,,,0.00,61,WeatherHawk,2013-03-09 01:28:00,
2013-03-08 17:33:00,46.7,1.6,30.09,North,351,8.0,0.0,15,0.00,,,0.00,52,WeatherHawk,2013-03-09 01:33:00,
2013-03-08 17:38:00,46.5,2.8,30.09,North,1,4.0,0.0,16,0.00,,,0.00,44,WeatherHawk,2013-03-09 01:38:00,
2013-03-08 17:43:00,46.2,1.1,30.10,North,0,8.0,0.0,15,0.00,,,0.00,14,WeatherHawk,2013-03-09 01:43:00,
2013-03-08 17:48:00,46.0,4.9,30.10,NNW,344,6.0,0.0,18,0.00,,,0.00,10,WeatherHawk,2013-03-09 01:48:00,
2013-03-08 17:53:00,45.7,4.6,30.11,North,6,3.0,0.0,18,0.00,,,0.00,8,WeatherHawk,2013-03-09 01:53:00,
2013-03-08 17:58:00,46.2,2.5,30.11,NNE,17,6.0,0.0,16,0.00,,,0.00,5,WeatherHawk,2013-03-09 01:58:00,
2013-03-08 18:03:00,44.9,4.0,30.12,North,9,5.0,0.0,18,0.00,,,0.00,4,WeatherHawk,2013-03-09 02:03:00,
2013-03-08 18:08:00,45.1,5.4,30.12,North,0,8.0,0.0,19,0.00,,,0.00,3,WeatherHawk,2013-03-09 02:08:00,
2013-03-08 18:13:00,45.4,4.4,30.12,North,3,8.0,0.0,18,0.00,,,0.00,1,WeatherHawk,2013-03-09 02:13:00,
2013-03-08 18:18:00,44.3,6.9,30.12,NE,38,4.0,0.0,21,0.00,,,0.00,0,WeatherHawk,2013-03-09 02:18:00,
2013-03-08 18:23:00,44.6,6.1,30.13,NNE,16,6.0,0.0,20,0.00,,,0.00,0,WeatherHawk,2013-03-09 02:23:00,
2013-03-08 18:29:00,43.6,7.3,30.13,NE,35,2.0,0.0,22,0.00,,,0.00,1,WeatherHawk,2013-03-09 02:29:00,
2013-03-08 18:34:00,42.8,6.6,30.14,ENE,65,2.0,0.0,22,0.00,,,0.00,0,WeatherHawk,2013-03-09 02:34:00,
2013-03-08 18:39:00,43.5,8.2,30.14,North,9,5.0,0.0,23,0.00,,,0.00,0,WeatherHawk,2013-03-09 02:39:00,
2013-03-08 18:44:00,44.2,6.7,30.14,North,6,5.0,0.0,21,0.00,,,0.00,0,WeatherHawk,2013-03-09 02:44:00,
2013-03-08 18:50:00,43.3,9.0,30.14,North,351,2.0,-999.0,24,0.00,,,0.00,0,WeatherHawk,2013-03-09 02:50:00,
2013-03-08 18:55:00,42.6,9.3,30.15,ESE,102,1.0,0.0,25,0.00,,,0.00,0,WeatherHawk,2013-03-09 02:55:00,
2013-03-08 19:00:00,42.7,10.3,30.15,NE,56,2.0,0.0,26,0.00,,,0.00,1,WeatherHawk,2013-03-09 03:00:00,
2013-03-08 19:05:00,43.4,10.0,30.15,North,8,4.0,0.0,25,0.00,,,0.00,0,WeatherHawk,2013-03-09 03:05:00,
2013-03-08 19:10:00,42.3,9.1,30.16,North,1,3.0,0.0,25,0.00,,,0.00,0,WeatherHawk,2013-03-09 03:10:00,
2013-03-08 19:15:00,42.4,10.8,30.16,ENE,63,0.0,0.0,27,0.00,,,0.00,0,WeatherHawk,2013-03-09 03:15:00,
2013-03-08 19:20:00,42.6,11.8,30.16,ESE,111,1.0,-999.0,28,0.00,,,0.00,1,WeatherHawk,2013-03-09 03:20:00,
2013-03-08 19:25:00,42.5,11.7,30.16,NNW,342,2.0,0.0,28,0.00,,,0.00,0,WeatherHawk,2013-03-09 03:25:00,
2013-03-08 19:30:00,41.8,12.6,30.16,SW,227,0.0,0.0,30,0.00,,,0.00,0,WeatherHawk,2013-03-09 03:30:00,
2013-03-08 19:35:00,39.9,12.5,30.17,SW,224,0.0,-999.0,32,0.00,,,0.00,0,WeatherHawk,2013-03-09 03:35:00,
2013-03-08 19:40:00,39.1,13.1,30.17,SSE,162,0.0,-999.0,34,0.00,,,0.00,0,WeatherHawk,2013-03-09 03:40:00,
2013-03-08 19:45:00,39.1,13.1,30.17,SW,214,0.0,0.0,34,0.00,,,0.00,0,WeatherHawk,2013-03-09 03:45:00,
2013-03-08 19:50:00,39.5,14.2,30.17,South,185,0.0,0.0,35,0.00,,,0.00,0,WeatherHawk,2013-03-09 03:50:00,
2013-03-08 19:55:00,40.8,16.5,30.17,NNW,330,0.0,-999.0,37,0.00,,,0.00,0,WeatherHawk,2013-03-09 03:55:00,
2013-03-08 20:00:00,39.7,16.8,30.17,NNW,344,2.0,-999.0,39,0.00,,,0.00,0,WeatherHawk,2013-03-09 04:00:00,
2013-03-08 20:05:00,38.7,15.9,30.17,NNE,16,0.0,-999.0,39,0.00,,,0.00,0,WeatherHawk,2013-03-09 04:05:00,
2013-03-08 20:10:00,38.8,14.8,30.18,NNE,16,3.0,0.0,37,0.00,,,0.00,0,WeatherHawk,2013-03-09 04:10:00,
2013-03-08 20:15:00,38.0,15.9,30.18,North,3,2.0,-999.0,40,0.00,,,0.00,0,WeatherHawk,2013-03-09 04:15:00,
2013-03-08 20:20:00,36.8,15.9,30.17,ESE,118,1.0,-999.0,42,0.00,,,0.00,1,WeatherHawk,2013-03-09 04:20:00,
2013-03-08 20:25:00,37.2,16.8,30.17,ESE,117,0.0,-999.0,43,0.00,,,0.00,0,WeatherHawk,2013-03-09 04:25:00,
2013-03-08 20:30:00,36.5,17.2,30.18,NNW,347,0.0,-999.0,45,0.00,,,0.00,0,WeatherHawk,2013-03-09 04:30:00,
2013-03-08 20:35:00,37.5,18.6,30.17,North,10,1.0,0.0,46,0.00,,,0.00,0,WeatherHawk,2013-03-09 04:35:00,
2013-03-08 20:40:00,37.4,18.6,30.18,ENE,57,0.0,0.0,46,0.00,,,0.00,0,WeatherHawk,2013-03-09 04:40:00,
2013-03-08 20:45:00,38.1,19.2,30.18,North,351,0.0,-999.0,46,0.00,,,0.00,0,WeatherHawk,2013-03-09 04:45:00,
2013-03-08 20:50:00,38.0,19.1,30.18,North,351,2.0,0.0,46,0.00,,,0.00,1,WeatherHawk,2013-03-09 04:50:00,
2013-03-08 20:55:00,37.3,18.4,30.19,NW,323,1.0,0.0,46,0.00,,,0.00,0,WeatherHawk,2013-03-09 04:55:00,
2013-03-08 21:00:00,35.8,17.6,30.18,NW,323,0.0,0.0,47,0.00,,,0.00,0,WeatherHawk,2013-03-09 05:00:00,
2013-03-08 21:01:00,36.7,19.3,30.19,NW,323,0.0,0.0,49,0.00,,,0.00,0,WeatherHawk,2013-03-09 05:01:00,
2013-03-08 21:02:00,35.9,18.2,30.19,NW,323,0.0,0.0,48,0.00,,,0.00,1,WeatherHawk,2013-03-09 05:02:00,
2013-03-08 21:07:00,36.3,18.0,30.19,NW,323,0.0,0.0,47,0.00,,,0.00,0,WeatherHawk,2013-03-09 05:07:00,
2013-03-08 21:12:00,34.5,17.3,30.19,NW,323,0.0,0.0,49,0.00,,,0.00,0,WeatherHawk,2013-03-09 05:12:00,
2013-03-08 21:17:00,35.3,20.3,30.19,NNE,25,0.0,0.0,54,0.00,,,0.00,0,WeatherHawk,2013-03-09 05:17:00,
2013-03-08 21:22:00,36.9,20.0,30.19,West,279,0.0,0.0,50,0.00,,,0.00,1,WeatherHawk,2013-03-09 05:22:00,
2013-03-08 21:27:00,36.2,19.4,30.19,West,277,1.0,0.0,50,0.00,,,0.00,1,WeatherHawk,2013-03-09 05:27:00,
2013-03-08 21:32:00,36.1,19.2,30.19,NW,326,0.0,0.0,50,0.00,,,0.00,0,WeatherHawk,2013-03-09 05:32:00,
2013-03-08 21:37:00,34.1,18.3,30.19,NW,311,0.0,0.0,52,0.00,,,0.00,0,WeatherHawk,2013-03-09 05:37:00,
2013-03-08 21:42:00,33.6,18.3,30.19,South,170,0.0,0.0,53,0.00,,,0.00,0,WeatherHawk,2013-03-09 05:42:00,
2013-03-08 21:47:00,33.9,19.0,30.20,SW,230,0.0,0.0,54,0.00,,,0.00,0,WeatherHawk,2013-03-09 05:47:00,
2013-03-08 21:52:00,35.4,20.4,30.20,North,3,1.0,0.0,54,0.00,,,0.00,1,WeatherHawk,2013-03-09 05:52:00,
2013-03-08 21:57:00,35.9,19.1,30.20,NW,311,3.0,0.0,50,0.00,,,0.00,0,WeatherHawk,2013-03-09 05:57:00,
2013-03-08 22:02:00,35.7,18.9,30.20,WSW,253,4.0,0.0,50,0.00,,,0.00,0,WeatherHawk,2013-03-09 06:02:00,
2013-03-08 22:07:00,35.2,18.4,30.20,West,267,2.0,0.0,50,0.00,,,0.00,0,WeatherHawk,2013-03-09 06:07:00,
2013-03-08 22:12:00,35.1,19.3,30.20,West,272,2.0,0.0,52,0.00,,,0.00,0,WeatherHawk,2013-03-09 06:12:00,
2013-03-08 22:17:00,34.4,18.6,30.20,WSW,250,0.0,0.0,52,0.00,,,0.00,0,WeatherHawk,2013-03-09 06:17:00,
2013-03-08 22:23:00,32.3,16.7,30.20,West,269,0.0,0.0,52,0.00,,,0.00,0,WeatherHawk,2013-03-09 06:23:00,
2013-03-08 22:28:00,32.7,18.7,30.21,WSW,247,0.0,0.0,56,0.00,,,0.00,0,WeatherHawk,2013-03-09 06:28:00,
2013-03-08 22:33:00,34.3,19.8,30.21,West,263,1.0,0.0,55,0.00,,,0.00,0,WeatherHawk,2013-03-09 06:33:00,
2013-03-08 22:38:00,34.0,19.6,30.21,WNW,286,0.0,0.0,55,0.00,,,0.00,0,WeatherHawk,2013-03-09 06:38:00,
2013-03-08 22:43:00,32.5,19.3,30.21,SSW,195,2.0,0.0,58,0.00,,,0.00,0,WeatherHawk,2013-03-09 06:43:00,
2013-03-08 22:48:00,34.0,19.1,30.22,SSW,202,2.0,0.0,54,0.00,,,0.00,0,WeatherHawk,2013-03-09 06:48:00,
2013-03-08 22:53:00,33.0,18.7,30.21,SW,218,2.0,0.0,55,0.00,,,0.00,1,WeatherHawk,2013-03-09 06:53:00,
2013-03-08 22:58:00,33.4,19.4,30.22,WSW,244,1.0,0.0,56,0.00,,,0.00,0,WeatherHawk,2013-03-09 06:58:00,
2013-03-08 23:03:00,33.6,20.0,30.22,West,262,0.0,0.0,57,0.00,,,0.00,0,WeatherHawk,2013-03-09 07:03:00,
2013-03-08 23:08:00,32.9,19.3,30.22,WSW,258,0.0,0.0,57,0.00,,,0.00,0,WeatherHawk,2013-03-09 07:08:00,
2013-03-08 23:13:00,33.4,20.7,30.22,West,259,2.0,0.0,59,0.00,,,0.00,0,WeatherHawk,2013-03-09 07:13:00,
2013-03-08 23:19:00,33.2,19.2,30.22,West,269,0.0,0.0,56,0.00,,,0.00,0,WeatherHawk,2013-03-09 07:19:00,
2013-03-08 23:24:00,32.2,18.7,30.22,SW,221,0.0,0.0,57,0.00,,,0.00,0,WeatherHawk,2013-03-09 07:24:00,
2013-03-08 23:29:00,33.1,20.3,30.22,West,266,3.0,0.0,59,0.00,,,0.00,0,WeatherHawk,2013-03-09 07:29:00,
2013-03-08 23:34:00,31.7,19.1,30.23,WSW,256,0.0,0.0,59,0.00,,,0.00,1,WeatherHawk,2013-03-09 07:34:00,
2013-03-08 23:39:00,32.1,20.6,30.23,WSW,256,0.0,0.0,62,0.00,,,0.00,0,WeatherHawk,2013-03-09 07:39:00,
2013-03-08 23:45:00,32.8,20.9,30.23,South,170,0.0,0.0,61,0.00,,,0.00,0,WeatherHawk,2013-03-09 07:45:00,
2013-03-08 23:50:00,32.7,20.0,30.23,WSW,237,2.0,0.0,59,0.00,,,0.00,0,WeatherHawk,2013-03-09 07:50:00,
2013-03-08 23:55:00,33.0,19.0,30.23,WNW,288,3.0,0.0,56,0.00,,,0.00,0,WeatherHawk,2013-03-09 07:55:00,